Dewpoint
25 26 26 27 27 28 28 27 25 30 34 36 36 40 38 38 39 41 46 49 51 54 60 59 58 57 55
25 25 26 27 27 28 25 23 26 29 33 34 35 38 37 37 37 39 42 42 47 50 59 58 57 57 55
25 26 26 26 27 27 27 27 26 32 31 32 34 35 36 35 37 37 39 42 45 49 52 56 56 56 55
25 25 25 27 28 27 26 27 28 27 30 32 33 33 34 34 34 36 38 39 42 46 49 54 54 54 54
25 25 24 25 25 27 27 28 27 29 31 31 30 30 30 32 33 36 36 39 41 44 47 53 53 53 53
26 27 25 26 27 27 27 27 25 30 29 29 30 30 30 30 33 34 37 40 41 40 44 51 53 52 52
29 28 29 28 28 28 27 27 28 29 29 27 29 29 29 26 33 35 38 43 44 41 43 48 51 51 51
22 23 24 25 28 29 30 30 30 30 29 27 28 28 29 30 34 37 39 41 41 42 44 47 50 51 50
28 29 29 29 29 28 27 27 28 26 28 27 27 28 30 29 34 36 34 38 38 39 42 47 49 50 50
23 25 26 27 29 29 33 30 28 28 27 28 27 29 29 31 33 29 30 34 36 37 39 42 48 51 51
25 25 26 26 28 27 27 30 29 30 29 29 29 30 30 28 29 29 29 31 32 34 37 40 44 50 50
28 28 26 25 26 28 28 29 30 30 29 35 33 32 31 29 28 28 28 30 30 33 34 38 41 49 49
25 24 24 27 27 28 29 30 30 31 29 32 32 32 32 30 28 28 28 28 31 32 34 35 36 39 49
24 25 26 27 27 28 27 29 28 28 29 31 32 33 30 30 29 28 28 28 29 30 31 33 35 37 45
24 25 26 26 26 28 26 28 26 25 27 29 29 29 30 30 29 29 27 29 29 29 30 32 34 36 38
23 25 25 24 25 27 28 28 26 27 26 27 29 29 29 28 30 29 29 28 29 28 30 31 31 34 38
22 24 24 24 24 26 28 27 25 27 27 29 29 28 25 23 26 32 29 30 30 28 29 31 31 32 35
Lifted_Index
21 21 21 21 22 22 23 22 22 22 21 21 21 21 20 20 19 16 12 9 6 3 2 2 3 4 5
21 21 21 21 21 22 22 22 22 22 22 21 21 21 21 20 19 17 14 10 7 4 3 2 3 4 5
21 21 21 21 21 21 21 22 22 22 22 22 21 21 21 21 20 19 16 12 8 5 4 3 3 3 4
21 21 20 20 20 20 20 21 21 21 22 22 21 21 21 21 21 20 18 14 10 7 5 4 3 3 4
19 19 19 19 19 19 19 20 20 20 21 21 21 21 21 21 21 21 19 17 12 8 6 4 4 3 4
18 18 18 18 18 18 18 18 19 19 20 21 21 21 21 21 21 21 20 18 15 10 7 5 4 4 4
18 18 18 18 18 18 18 18 18 19 19 19 20 21 21 21 21 21 20 18 17 13 8 6 5 4 4
17 17 17 16 17 17 18 18 19 19 19 19 19 20 21 21 21 20 19 18 18 15 10 7 6 5 5
14 14 14 14 14 15 15 16 17 18 18 18 18 19 20 20 20 20 20 19 18 16 12 8 6 6 5
12 12 12 12 12 12 12 13 14 15 16 18 18 18 18 19 20 21 21 20 18 17 14 10 7 6 6
12 12 12 11 11 11 11 11 12 12 14 16 17 17 18 18 19 21 21 21 19 18 15 11 8 7 7
12 12 11 11 11 11 11 10 10 11 11 13 15 16 17 18 19 20 21 21 20 19 16 13 10 9 8
12 11 11 11 10 10 10 10 10 10 10 11 13 15 17 17 18 19 20 20 21 20 17 14 11 10 9
12 11 11 10 10 10 10 10 10 10 10 10 11 13 15 17 18 18 19 20 21 20 18 15 12 10 10
12 11 11 10 10 10 10 10 10 10 10 10 10 12 14 16 17 18 19 19 20 20 19 16 13 11 11
12 12 11 10 10 10 10 10 10 10 9 9 10 10 12 14 16 18 18 18 19 20 20 17 14 12 12
12 12 11 11 10 10 9 9 10 9 9 9 9 10 10 12 15 17 18 18 19 20 20 18 15 13 12